Location: Newark
(44.1667°N, 8.2500°E)
Time: 22:52:35
(UTC+00:00)

S-56A Canister/Altair - Pass Details

Date: 14 December 2019
Orbit: 634 x 2498 km, 38.9° (Epoch: 22 January)

Event Time Altitude Azimuth Distance (km) Brightness Sun altitude
Rises 13:56:17 0° 283° (WNW) 6,162 12.5 13.9°
Reaches altitude 10° 14:00:34 10° 278° (W) 5,165 12.2 13.4°
Maximum altitude 14:14:11 44° 214° (SW) 2,910 11.6 11.9°
Drops below altitude 10° 14:25:14 10° 147° (SSE) 4,212 11.5 10.6°
Sets 14:28:22 0° 141° (SE) 4,969 11.8 10.2°
